Regional Weather Roundup
Issued by NWS Bismarck, ND

Home | Current Version | Previous Version | Text Only | Print | Product List | Glossary On
Versions: 1 2 3 4 5 6 7 8 9 10 11 12 13 14 15 16 17 18 19 20 21 22 23 24 25 26 27 28 29 30 31 32 33 34 35 36 37 38 39 40 41 42 43 44 45 46 47 48 49 50
000
ASUS43 KBIS 070210
RWRBIS

NWR BROADCAST TEXT
NATIONAL WEATHER SERVICE BISMARCK ND
900 PM CDT WED MAY 06 2015

NOTE: "FAIR" INDICATES FEW OR NO CLOUDS BELOW 12,000 FEET WITH NO
SIGNIFICANT WEATHER AND/OR OBSTRUCTIONS TO VISIBILITY.


CITY           SKY/WX    TMP DP  RH WIND       PRES   REMARKS
WILLISTON      LGT RAIN  51  48  89 N16G24    29.74S
MINOT          LGT RAIN  58  57  97 N5        29.64R
MINOT AFB      DRIZZLE   60  60 100 N6        29.63S
BISMARCK       CLOUDY    62  57  83 E8        29.61R
DICKINSON      CLOUDY    51  50  96 NW24G32   29.67R
GARRISON         N/A     60  57  89 N7        29.62S
HETTINGER ARPT LGT RAIN  53  51  93 NW17      29.66R FOG
JAMESTOWN      CLOUDY    61  60  97 SE13      29.60F FOG
BEACH          CLOUDY    48  48 100 N15       29.77R
CARRINGTON     CLOUDY    59  59 100 E14       29.63F FOG
CROSBY         LGT RAIN  50  50 100 NW16G22   29.74S
HARVEY         CLOUDY    59  59 100 SE10      29.64S FOG
HAZEN          LGT RAIN  57  57 100 NW9       29.63S
LINTON         FAIR      61  61 100 E3        29.59S
MANDAN         CLOUDY    61  59  94 E9        29.62R
OAKES            N/A     63  63 100 SE13      29.63R
STANLEY        LGT RAIN  52  52 100 NW20G25   29.69S
WATFORD CITY   CLOUDY    48  48 100 N16G22    29.71R
$$

CITY           SKY/WX    TMP DP  RH WIND       PRES   REMARKS
GRAND FORKS    CLOUDY    61  59  93 E10       29.67F
GRAND FORKS AF CLOUDY    60  59  94 E13       29.67F
DEVILS LAKE    CLOUDY    59  55  88 E14       29.65F
FARGO          CLOUDY    65  61  87 SE18G24   29.67R
CANDO          CLOUDY    59  57  94 SE14      29.67F
CAVALIER       CLOUDY    61  61 100 SE8       29.72S FOG
GRAFTON        CLOUDY    61  61 100 E14       29.71F FOG
GWINNER          N/A     64  64 100 SE15      29.65S
LANGDON        CLOUDY    59  59 100 SE18      29.70S FOG
WALHALLA       LGT RAIN  59  59 100 SE12      29.70F
$$

CITY           SKY/WX    TMP DP  RH WIND       PRES   REMARKS
ABERDEEN       MOCLDY    62  59  90 S8        29.63R
MOBRIDGE       LGT RAIN  61  59  93 S3        29.58R
BUFFALO          N/A     51  47  86 NW28G35   29.64R
RAPID CITY     LGT RAIN  51  47  86 NW28G40   29.66R
GLASGOW        MOCLDY    56  33  42 N16       29.83R
SIDNEY         CLOUDY    52  46  82 NW13      29.76S
WOLF POINT     CLOUDY    59  38  45 N13       29.80S
GLENDIVE       CLOUDY    52  45  76 NW14      29.79S
MILES CITY     CLOUDY    55  42  61 N13       29.82R
BAKER          LGT RAIN  49  48  97 NW16G24   29.77R
$$

CITY           SKY/WX    TMP DP  RH WIND       PRES   REMARKS
BILLINGS       CLOUDY    53  30  41 N9        29.89R
GREAT FALLS    CLEAR     52  22  30 NE10      29.91R
REGINA         CLOUDY    52  43  71 NW15G23   29.80R
ESTEVAN        LGT RAIN  52  50  93 NW20G26   29.72R FOG
$$




USA.gov is the U.S. government's official web portal to all federal, state and local government web resources and services.